Regional Weather Roundup
Issued by NWS

Home | Current Version | Previous Version | Text Only | Print | Product List | Glossary Off
Versions: 1 2 3 4 5 6 7 8 9 10 11 12 13 14 15 16 17 18 19 20 21 22 23 24 25 26 27 28 29 30 31 32 33 34 35 36 37 38 39 40 41 42 43 44 45 46 47 48 49 50

000
ASUS43 KFSD 292010
RWRSD

WEATHER ROUNDUP FOR SOUTH DAKOTA
NATIONAL WEATHER SERVICE SIOUX FALLS SD
300 PM CDT MON JUN 29 2015

NOTE: "FAIR" INDICATES FEW OR NO CLOUDS BELOW 12,000 FEET WITH NO
SIGNIFICANT WEATHER AND/OR OBSTRUCTIONS TO VISIBILITY.


SDZ001>005-009-010-012>017-292100-
NORTHWEST AND NORTH CENTRAL SOUTH DAKOTA

CITY           SKY/WX    TMP DP  RH WIND       PRES   REMARKS
BUFFALO          N/A     89  57  33 W6        30.00S
FAITH            N/A     90  53  28 VRB5      30.03S
MOBRIDGE       SUNNY     94  55  26 NW13      29.94F
$$

SDZ012>016-024>037-041>051-057-063-072>074-292100-
SOUTHWEST AND SOUTH CENTRAL SOUTH DAKOTA

CITY           SKY/WX    TMP DP  RH WIND       PRES   REMARKS
RAPID CTY ARPT SUNNY     88  59  37 NE5       30.08F
PIERRE         SUNNY     88  63  43 W15       29.96F
CUSTER         MOSUNNY   77  55  46 E5        30.24S
ELLSWORTH AFB  SUNNY     87  55  33 N5        30.08F
PHILIP         SUNNY     90  61  37 CALM      30.01S
PINE RIDGE     SUNNY     86  60  41 NW7       30.09F
SPEARFISH      FAIR      84  57  39 NW3       30.14S
WINNER         FAIR      92  49  22 NW9       29.99F
$$

SDZ004>011-016>023-039-040-292100-
NORTHEAST SOUTH DAKOTA

CITY           SKY/WX    TMP DP  RH WIND       PRES   REMARKS
ABERDEEN       SUNNY     88  58  36 NW13      29.91S
WATERTOWN      SUNNY     80  61  52 W12       29.92F
BROOKINGS      SUNNY     81  59  47 NW13      29.94F
SISSETON         N/A     82  59  45 NW15      29.87F
$$

SDZ017-020-022-023-036>040-048>070-292100-
SOUTHEAST SOUTH DAKOTA

CITY           SKY/WX    TMP DP  RH WIND       PRES   REMARKS
SIOUX FALLS    SUNNY     82  58  43 NW13      29.93S
HURON          SUNNY     85  62  46 N8        29.92F
CHAMBERLAIN    SUNNY     89  56  31 N12G18    29.95F
MITCHELL       SUNNY     85  59  41 N13       29.94F
YANKTON        SUNNY     84  57  39 N8G17     29.93S
$$

ABBREVIATIONS USED IN REMARKS
   TC - TEMPERATURE IN CELSIUS
  WCI - WIND CHILL INDEX
   HX - HEAT INDEX
  VSB - VISIBILITY



USA.gov is the U.S. government's official web portal to all federal, state and local government web resources and services.